Weather History for Mount Pleasant, IA

Change the Weather History Date:

Sunday, January 13, 2013

  Actual Average Record
Temperature  
Mean Temperature 16 °F -  
Max Temperature 21 °F 30 °F 60 °F (1961)
Min Temperature 11 °F 13 °F -10 °F (1963)
Degree Days  
Heating Degree Days 49    
Moisture  
Dew Point 9 °F    
Average Humidity 71    
Maximum Humidity 82    
Minimum Humidity 60    
Precipitation  
Precipitation 0.00 in - - ()
Sea Level Pressure  
Sea Level Pressure 30.15 in    
Wind  
Wind Speed 11 mph (WNW)    
Max Wind Speed 21 mph    
Max Gust Speed 24 mph    
Visibility 10 miles    
Events Snow    
Averages and records for this station are not official NWS values.
T = Trace of Precipitation, MM = Missing Value Source: NWS Daily Summary

Daily Weather History Graph

Daily Weather History Graph

Search for Another Location

Airport:

Trip Planner

Search our weather history database for the weather conditions in past years. The results will help you decide how hot, cold, wet, or windy it might be!

Date:

Astronomy

Jan. 13, 2013 Rise Set
Actual Time 7:29 AM CST 5:00 PM CST
Civil Twilight 6:58 AM CST 5:31 PM CST
Nautical Twilight 6:24 AM CST 6:05 PM CST
Astronomical Twilight 5:51 AM CST 6:38 PM CST
Moon 8:26 AM CST (1/13) 7:41 PM CST (1/13)
Length of Visible Light 10h 32m
Length of Day
9h 31m
Waxing Crescent, 5% of the Moon is Illuminated
Jan 13
Waxing Crescent
Jan 18
First Quarter
Jan 26
Full
Feb 3
Last Quarter
Feb 10
New

Hourly Weather History & Observations

Time (CST) Temp. Windchill Dew Point Humidity Pressure Visibility Wind Dir Wind Speed Gust Speed Precip Events Conditions
12:15 AM 21.0 °F 8.1 °F 13.8 °F 74% 29.96 in 10.0 mi NNW 13.8 mph - N/A   Scattered Clouds
12:35 AM 21.2 °F 8.3 °F 14.4 °F 75% 29.99 in 10.0 mi NW 13.8 mph 20.7 mph N/A   Mostly Cloudy
12:55 AM 21.2 °F 9.5 °F 12.7 °F 70% 30.01 in 10.0 mi NW 11.5 mph - N/A   Overcast
1:15 AM 20.8 °F 9.0 °F 12.6 °F 70% 30.03 in 10.0 mi WNW 11.5 mph 17.3 mph N/A   Overcast
1:35 AM 20.3 °F 5.7 °F 12.4 °F 71% 29.99 in 10.0 mi NW 17.3 mph - N/A   Overcast
1:55 AM 19.4 °F 6.0 °F 12.2 °F 74% 30.02 in 10.0 mi NW 13.8 mph 20.7 mph N/A   Mostly Cloudy
2:15 AM 19.2 °F 5.3 °F 11.8 °F 73% 30.02 in 10.0 mi NNW 15.0 mph 18.4 mph N/A   Mostly Cloudy
2:35 AM 19.0 °F 6.1 °F 11.3 °F 72% 30.03 in 10.0 mi NW 12.7 mph 21.9 mph N/A   Overcast
2:55 AM 18.7 °F 5.7 °F 12.0 °F 75% 30.04 in 10.0 mi NNW 12.7 mph - N/A   Overcast
3:15 AM 18.5 °F 6.8 °F 11.3 °F 73% 30.05 in 10.0 mi NW 10.4 mph - N/A   Overcast
3:35 AM 18.3 °F 6.6 °F 10.6 °F 72% 30.06 in 10.0 mi NW 10.4 mph 17.3 mph N/A   Overcast
3:55 AM 18.1 °F 5.6 °F 11.3 °F 75% 30.05 in 10.0 mi NNW 11.5 mph - N/A   Overcast
4:15 AM 18.0 °F 6.1 °F 11.3 °F 75% 30.04 in 10.0 mi NW 10.4 mph - N/A Snow Light Snow
4:35 AM 17.6 °F 5.7 °F 10.9 °F 75% 30.04 in 10.0 mi NNW 10.4 mph - N/A   Overcast
4:55 AM 17.6 °F 8.2 °F 11.1 °F 76% 30.06 in 7.0 mi WNW 6.9 mph - N/A Snow Light Snow
5:15 AM 17.2 °F 6.0 °F 10.6 °F 75% 30.07 in 10.0 mi WNW 9.2 mph - N/A Snow Light Snow
5:35 AM 17.2 °F 4.5 °F 11.3 °F 78% 30.07 in 7.0 mi WNW 11.5 mph - N/A Snow Light Snow
5:55 AM 16.0 °F 4.4 °F 8.1 °F 71% 30.08 in 10.0 mi NW 9.2 mph - N/A Snow Light Snow
6:15 AM 15.4 °F 3.0 °F 6.8 °F 69% 30.08 in 10.0 mi WNW 10.4 mph - N/A   Overcast
6:35 AM 14.7 °F 2.9 °F 6.3 °F 69% 30.09 in 10.0 mi WNW 9.2 mph - N/A   Overcast
6:55 AM 14.5 °F 1.9 °F 6.4 °F 70% 30.11 in 10.0 mi WNW 10.4 mph - N/A   Overcast
7:15 AM 14.2 °F 1.4 °F 6.3 °F 71% 30.10 in 10.0 mi NW 10.4 mph 18.4 mph N/A   Overcast
7:35 AM 14.0 °F 2.0 °F 6.4 °F 72% 30.13 in 10.0 mi WNW 9.2 mph - N/A   Scattered Clouds
7:55 AM 14.0 °F 3.9 °F 6.8 °F 73% 30.13 in 10.0 mi NW 6.9 mph - N/A   Mostly Cloudy
8:15 AM 14.2 °F 1.4 °F 7.2 °F 74% 30.13 in 10.0 mi NW 10.4 mph - N/A   Overcast
8:35 AM 14.0 °F 2.0 °F 6.8 °F 73% 30.14 in 10.0 mi NW 9.2 mph 17.3 mph N/A   Overcast
8:55 AM 14.4 °F 1.6 °F 6.8 °F 72% 30.14 in 10.0 mi NW 10.4 mph - N/A   Overcast
9:15 AM 14.5 °F 2.7 °F 7.3 °F 73% 30.13 in 10.0 mi WNW 9.2 mph 19.6 mph N/A   Overcast
9:35 AM 14.5 °F 2.7 °F 6.6 °F 71% 30.13 in 10.0 mi WNW 9.2 mph 16.1 mph N/A   Mostly Cloudy
9:55 AM 14.2 °F 3.1 °F 6.3 °F 71% 30.15 in 10.0 mi NW 8.1 mph - N/A   Mostly Cloudy
10:15 AM 15.1 °F 3.3 °F 7.0 °F 70% 30.16 in 10.0 mi NW 9.2 mph - N/A   Overcast
10:35 AM 15.8 °F 4.2 °F 7.5 °F 70% 30.14 in 10.0 mi WNW 9.2 mph - N/A   Overcast
10:55 AM 15.1 °F 2.5 °F 6.8 °F 70% 30.15 in 10.0 mi West 10.4 mph 16.1 mph N/A   Mostly Cloudy
11:15 AM 15.8 °F 0.9 °F 7.2 °F 69% 30.15 in 10.0 mi WNW 15.0 mph - N/A   Scattered Clouds
11:35 AM 16.7 °F 2.6 °F 7.7 °F 68% 30.15 in 10.0 mi West 13.8 mph 21.9 mph N/A   Scattered Clouds
11:55 AM 17.1 °F 3.0 °F 8.1 °F 68% 30.15 in 10.0 mi WNW 13.8 mph 19.6 mph N/A   Mostly Cloudy
12:15 PM 16.5 °F 1.8 °F 8.1 °F 69% 30.13 in 10.0 mi West 15.0 mph 19.6 mph N/A   Mostly Cloudy
12:35 PM 18.0 °F 4.2 °F 9.5 °F 70% 30.12 in 10.0 mi West 13.8 mph 19.6 mph N/A   Overcast
12:55 PM 16.5 °F 3.6 °F 7.3 °F 67% 30.12 in 10.0 mi WNW 11.5 mph 23.0 mph N/A   Scattered Clouds
1:15 PM 16.5 °F 0.8 °F 7.2 °F 67% 30.12 in 10.0 mi WNW 17.3 mph 20.7 mph N/A   Scattered Clouds
1:35 PM 18.0 °F 3.6 °F 7.9 °F 65% 30.11 in 10.0 mi WNW 15.0 mph 19.6 mph N/A   Scattered Clouds
1:55 PM 18.9 °F 4.8 °F 8.8 °F 65% 30.12 in 10.0 mi WNW 15.0 mph 20.7 mph N/A   Scattered Clouds
2:15 PM 18.9 °F 3.8 °F 8.2 °F 63% 30.13 in 10.0 mi WNW 17.3 mph 23.0 mph N/A   Scattered Clouds
2:35 PM 18.7 °F 2.3 °F 7.9 °F 63% 30.14 in 10.0 mi West 20.7 mph 24.2 mph N/A   Clear
2:55 PM 18.9 °F 4.3 °F 7.7 °F 62% 30.15 in 10.0 mi West 16.1 mph 24.2 mph N/A   Clear
3:15 PM 18.9 °F 5.9 °F 8.2 °F 63% 30.16 in 10.0 mi West 12.7 mph 24.2 mph N/A   Clear
3:35 PM 19.2 °F 8.4 °F 7.7 °F 61% 30.17 in 10.0 mi WNW 9.2 mph 19.6 mph N/A   Clear
3:55 PM 19.4 °F 5.0 °F 7.7 °F 60% 30.18 in 10.0 mi WNW 16.1 mph 21.9 mph N/A   Clear
4:15 PM 19.4 °F 6.6 °F 8.1 °F 61% 30.19 in 10.0 mi WNW 12.7 mph 20.7 mph N/A   Clear
4:35 PM 18.9 °F 5.9 °F 7.7 °F 62% 30.20 in 10.0 mi West 12.7 mph 17.3 mph N/A   Clear
4:55 PM 18.3 °F 5.2 °F 7.7 °F 63% 30.22 in 10.0 mi West 12.7 mph - N/A   Clear
5:15 PM 17.6 °F 6.4 °F 7.7 °F 65% 30.22 in 10.0 mi WNW 9.2 mph 16.1 mph N/A   Clear
5:35 PM 17.1 °F 7.6 °F 7.7 °F 67% 30.22 in 10.0 mi WNW 6.9 mph - N/A   Clear
5:55 PM 16.5 °F 6.9 °F 7.7 °F 68% 30.23 in 10.0 mi WNW 6.9 mph - N/A   Clear
6:15 PM 16.2 °F 6.5 °F 7.7 °F 69% 30.24 in 10.0 mi WNW 6.9 mph - N/A   Clear
6:35 PM 16.2 °F 5.5 °F 7.9 °F 70% 30.24 in 10.0 mi WNW 8.1 mph - N/A   Clear
6:55 PM 15.8 °F 6.1 °F 7.7 °F 70% 30.24 in 10.0 mi WNW 6.9 mph - N/A   Clear
7:15 PM 15.4 °F 5.6 °F 7.7 °F 71% 30.25 in 10.0 mi WNW 6.9 mph - N/A   Clear
7:35 PM 14.9 °F 4.0 °F 7.7 °F 73% 30.25 in 10.0 mi WNW 8.1 mph - N/A   Clear
7:55 PM 14.7 °F 9.0 °F 7.7 °F 74% 30.27 in 10.0 mi West 3.5 mph - N/A   Clear
8:15 PM 13.8 °F 6.2 °F 7.3 °F 75% 30.27 in 10.0 mi WNW 4.6 mph - N/A   Clear
8:35 PM 13.6 °F 4.6 °F 7.5 °F 77% 30.27 in 10.0 mi West 5.8 mph - N/A   Clear
8:55 PM 13.6 °F 4.6 °F 7.7 °F 77% 30.27 in 10.0 mi WNW 5.8 mph - N/A   Clear
9:15 PM 13.1 °F 4.0 °F 7.3 °F 78% 30.26 in 10.0 mi WNW 5.8 mph - N/A   Clear
9:35 PM 14.0 °F 5.1 °F 7.7 °F 76% 30.27 in 10.0 mi WNW 5.8 mph - N/A   Clear
9:55 PM 13.6 °F 4.6 °F 7.7 °F 77% 30.27 in 10.0 mi West 5.8 mph - N/A   Clear
10:15 PM 13.3 °F 4.2 °F 7.5 °F 78% 30.27 in 10.0 mi WNW 5.8 mph - N/A   Clear
10:35 PM 13.1 °F 4.0 °F 7.5 °F 78% 30.29 in 10.0 mi WSW 5.8 mph - N/A   Clear
10:55 PM 11.8 °F 2.5 °F 7.2 °F 81% 30.31 in 10.0 mi WSW 5.8 mph - N/A   Clear
11:35 PM 11.7 °F 3.7 °F 7.2 °F 82% 30.31 in 10.0 mi West 4.6 mph - N/A   Clear
11:55 PM 11.8 °F 2.5 °F 6.8 °F 80% 30.32 in 10.0 mi West 5.8 mph - N/A   Clear